[[{"header":{"parameterUnit":"m.s-1","parameterCategory":1,"la1":30.2991,"la2":30.254,"lo1":-89.0895,"lo2":-89.0444,"dy":0.0017,"dx":0.0017,"nx":28,"ny":28,"refTime":"2025-12-27T03:00:00:Z","depth":0,"parameterNumber":2,"parameterNumberName":"U-component_of_WINDS"},"data":[0,0,0,0,0,0,0,0,0,0,0,0,0,0,0,0,0,0,0,0,0,0,0,0,0,0,0,0,0,0,0,0,0,0,0,0,0,0,0,0,0,0,0,0,0,0,0,0,0,0,0,0,0,0,0,0,0,0,0.4128,0.4128,0,0.418,0.4181,0.4181,0.4159,0.4157,0.4156,0.4155,0.4213,0.4215,0.4218,0,0,0,0,0,0,0,0,0,0,0,0,0,0.4013,0.4015,0.4128,0.4128,0.4129,0.418,0.4181,0.4181,0.4159,0.4157,0.4156,0.4154,0.4212,0.4215,0.4218,0,0,0,0,0,0,0,0,0,0,0,0,0,0.4064,0.4016,0.4128,0.4124,0.4124,0.418,0.4181,0.4182,0.4159,0.4157,0.4155,0.4154,0.4211,0.4215,0.4219,0.4283,0,0,0.4231,0.4233,0,0,0,0,0,0,0,0,0.4061,0.4068,0.4124,0.4124,0.4125,0.4161,0.4161,0.4216,0.416,0.4146,0.4155,0.4153,0.4197,0.4202,0.4217,0.4285,0.4288,0.4232,0.4234,0.4236,0.4237,0,0,0,0,0,0,0,0.4057,0.4066,0.4149,0.4125,0.4125,0.4121,0.4126,0.4172,0.4182,0.4147,0.4146,0.4152,0.4197,0.4213,0.4218,0.4289,0.4232,0.4235,0.4238,0.4239,0.4414,0.4417,0,0,0,0,0,0,0.4053,0.4063,0.4147,0.415,0.4087,0.4125,0.413,0.4151,0.4181,0.4184,0.4153,0.4151,0.4207,0.4213,0.422,0.4298,0.4236,0.424,0.4242,0.4412,0.4415,0.4417,0,0,0,0,0,0,0.4051,0.4061,0.4145,0.4106,0.4116,0.4129,0.4152,0.4153,0.4169,0.4186,0.4188,0.4167,0.4205,0.4214,0.4267,0.43,0.4242,0.4245,0.441,0.4413,0.4416,0.4454,0,0,0,0,0,0,0.4048,0.406,0.4084,0.4107,0.4119,0.419,0.4154,0.4156,0.4175,0.4172,0.42,0.4202,0.4205,0.4261,0.4271,0.4304,0.4249,0.4407,0.4411,0.4415,0.445,0.4458,0.4465,0,0,0,0,0,0.4044,0.4093,0.4085,0.4095,0.4148,0.4192,0.4199,0.4199,0.4178,0.4202,0.4214,0.4201,0.4294,0.4267,0.4278,0.4313,0.4405,0.441,0.4415,0.4447,0.4457,0.4465,0,0,0,0,0,0,0.4075,0.4096,0.4087,0.4145,0.4167,0.4188,0.4219,0.421,0.4239,0.4235,0.4236,0.4242,0.4298,0.431,0.428,0.4377,0.4346,0.4354,0.4367,0.4377,0.4384,0.4381,0.4252,0,0,0,0,0,0.4088,0.4121,0.4138,0.4187,0.4199,0.4207,0.4226,0.4225,0.4248,0.4257,0.4272,0.4297,0.4331,0.4354,0.4387,0.4451,0.4458,0.4481,0.4488,0.4494,0.4501,0.4538,0.4549,0.4433,0.4433,0.4433,0,0,0.4116,0.4132,0.4153,0.4194,0.4211,0.4247,0.4215,0.4254,0.4281,0.4264,0.4315,0.4327,0.4354,0.4414,0.4441,0.4426,0.4534,0.4501,0.4505,0.4509,0.4544,0.4555,0.4565,0.4437,0.4436,0.4436,0,0,0.4186,0.42,0.4244,0.4261,0.4286,0.4292,0.4302,0.4325,0.4332,0.4383,0.4371,0.4404,0.4463,0.4484,0.4502,0.458,0.457,0.459,0.4631,0.4667,0.4676,0.4684,0.4714,0.4724,0.4597,0.4597,0.4597,0,0.4219,0.4271,0.4268,0.4308,0.4327,0.4312,0.4357,0.4374,0.4409,0.4424,0.4406,0.4481,0.4498,0.4563,0.4582,0.4596,0.461,0.4588,0.4674,0.4683,0.469,0.4719,0.473,0.4599,0.4599,0.4599,0.4599,0,0.4311,0.4347,0.4379,0.4413,0.4435,0.4478,0.4483,0.4506,0.4503,0.451,0.4564,0.4583,0.462,0.4635,0.4632,0.47,0.469,0.4674,0.4643,0.4704,0.4731,0.4741,0.4603,0.4602,0.4601,0.4601,0,0,0.4403,0.4434,0.4446,0.4462,0.4488,0.4517,0.4559,0.4594,0.4616,0.464,0.4677,0.4727,0.4712,0.4733,0.4732,0.4763,0.4826,0.4743,0.4743,0.4759,0.4904,0.4918,0.4931,0.4819,0.4821,0.4822,0.4903,0,0.4476,0.4549,0.4548,0.4617,0.4651,0.4637,0.4674,0.4696,0.4704,0.4735,0.4745,0.4781,0.4757,0.477,0.48,0.4812,0.4855,0.4806,0.4855,0.4857,0.4851,0.4944,0.4959,0.5034,0.4913,0.4915,0.4916,0,0.4572,0.46,0.4671,0.4694,0.4708,0.4742,0.4774,0.4804,0.4828,0.4832,0.4855,0.485,0.4894,0.4861,0.4924,0.489,0.491,0.4919,0.4922,0.4929,0.4892,0.4955,0.5057,0.5069,0.4932,0.4931,0.493,0,0.4635,0.4689,0.474,0.4753,0.478,0.4804,0.4817,0.4839,0.4861,0.489,0.4904,0.4938,0.4957,0.4984,0.4988,0.4963,0.5052,0.5019,0.5059,0.5059,0.508,0.5079,0.5188,0.5089,0.5089,0.5089,0.5088,0,0.4718,0.4763,0.4768,0.4799,0.485,0.4848,0.4899,0.491,0.493,0.4964,0.4953,0.4986,0.4989,0.5023,0.5026,0.5079,0.5087,0.5093,0.5094,0.5095,0.5095,0.511,0.5106,0.5092,0.5091,0.509,0.509,0,0.4798,0.4802,0.4857,0.4878,0.4884,0.4921,0.4939,0.497,0.4977,0.502,0.503,0.5042,0.5081,0.5088,0.5134,0.5137,0.52,0.5195,0.5192,0.5192,0.5232,0.5229,0.5357,0.5375,0.5262,0.5263,0.5264,0,0.4851,0.4886,0.491,0.4932,0.4946,0.4981,0.5003,0.5003,0.5026,0.5057,0.5084,0.5122,0.5153,0.5217,0.523,0.5266,0.5263,0.5305,0.5268,0.5269,0.5266,0.5265,0.5269,0.5313,0.5314,0.5315,0.5316,0,0.4948,0.4948,0.4979,0.5012,0.5038,0.5064,0.5088,0.5107,0.511,0.5137,0.5177,0.5201,0.5248,0.5287,0.5323,0.5337,0.5328,0.5327,0.5339,0.5342,0.5339,0.5343,0.5214,0.5325,0.5324,0.5323,0.5323,0.5323,0.5017,0.5047,0.507,0.5105,0.5123,0.5147,0.5177,0.5187,0.522,0.5258,0.5256,0.53,0.5325,0.5372,0.5389,0.5424,0.5411,0.5427,0.5431,0.5436,0.5441,0.5332,0.5431,0.543,0.543,0.543,0.543,0,0.5114,0.5128,0.516,0.5195,0.5223,0.521,0.5237,0.5262,0.5301,0.5324,0.5354,0.54,0.5438,0.5454,0.5491,0.5517,0.5514,0.5527,0.5526,0.553,0.545,0.5437,0.5529,0.5529,0.5529,0.5529,0.5529,0.5529,0.5168,0.522,0.5223,0.5284,0.5297,0.534,0.5356,0.5378,0.5397,0.5449,0.548,0.5489,0.551,0.5549,0.5584,0.5587,0.5603,0.5618,0.562,0.5546,0.5536,0.5526,0.5514,0.5621,0.5621,0.5698,0.5699,0.5699]},{"header":{"parameterUnit":"m.s-1","parameterCategory":1,"la1":30.2991,"la2":30.254,"lo1":-89.0895,"lo2":-89.0444,"dy":0.0017,"dx":0.0017,"nx":28,"ny":28,"refTime":"2025-12-27T03:00:00:Z","depth":0,"parameterNumber":3,"parameterNumberName":"V-component_of_WINDS"},"data":[0,0,0,0,0,0,0,0,0,0,0,0,0,0,0,0,0,0,0,0,0,0,0,0,0,0,0,0,0,0,0,0,0,0,0,0,0,0,0,0,0,0,0,0,0,0,0,0,0,0,0,0,0,0,0,0,0,0,2.9014,2.9015,0,2.9125,2.9126,2.9127,2.9105,2.9103,2.9101,2.91,2.9209,2.9214,2.9218,0,0,0,0,0,0,0,0,0,0,0,0,0,2.878,2.8785,2.9014,2.9015,2.9017,2.9124,2.9126,2.9127,2.9106,2.9103,2.9101,2.9099,2.9207,2.9213,2.9219,0,0,0,0,0,0,0,0,0,0,0,0,0,2.8885,2.8786,2.9014,2.9019,2.9021,2.9124,2.9126,2.9128,2.9106,2.9103,2.91,2.9098,2.9206,2.9213,2.922,2.9324,0,0,2.9241,2.9245,0,0,0,0,0,0,0,0,2.8879,2.8894,2.9017,2.9019,2.9021,2.9098,2.9084,2.9193,2.9107,2.9074,2.91,2.9096,2.9174,2.9184,2.9211,2.9329,2.9333,2.9242,2.9246,2.9249,2.9252,0,0,0,0,0,0,0,2.8872,2.8889,2.9058,2.9019,2.9021,2.9015,2.9026,2.9104,2.9139,2.9076,2.9075,2.9089,2.9175,2.9204,2.9213,2.9335,2.9242,2.9248,2.9253,2.9255,2.9543,2.9546,0,0,0,0,0,0,2.8864,2.8883,2.9054,2.9061,2.8941,2.9021,2.9034,2.9076,2.9138,2.9145,2.9091,2.9087,2.9193,2.9205,2.9217,2.9344,2.9249,2.9256,2.926,2.954,2.9544,2.9547,0,0,0,0,0,0,2.8859,2.8879,2.905,2.8972,2.8993,2.9028,2.9076,2.908,2.911,2.915,2.9155,2.9115,2.9192,2.9207,2.9298,2.9347,2.9259,2.9266,2.9536,2.9541,2.9546,2.9597,0,0,0,0,0,0,2.8852,2.8877,2.8918,2.8973,2.8997,2.913,2.9079,2.9084,2.9122,2.9118,2.9174,2.918,2.919,2.9287,2.9305,2.9355,2.9271,2.9531,2.9538,2.9544,2.9591,2.9603,2.9614,0,0,0,0,0,2.8844,2.8928,2.8921,2.8941,2.905,2.9133,2.9147,2.9158,2.9127,2.9168,2.9193,2.9178,2.9338,2.9296,2.9316,2.937,2.9528,2.9536,2.9543,2.9586,2.9601,2.9613,0,0,0,0,0,0,2.8877,2.8935,2.8928,2.9032,2.9078,2.9129,2.9181,2.9173,2.9228,2.9222,2.9232,2.9245,2.9337,2.9362,2.9314,2.9473,2.9429,2.9441,2.9454,2.9469,2.948,2.9473,2.9277,0,0,0,0,0,2.8897,2.8961,2.9007,2.9095,2.9118,2.9146,2.9182,2.9187,2.9234,2.9253,2.9285,2.9331,2.9391,2.9431,2.9489,2.9594,2.9605,2.964,2.9651,2.966,2.9671,2.9729,2.9745,2.9572,2.9572,2.9572,0,0,2.8938,2.8977,2.9017,2.9103,2.9139,2.9204,2.9162,2.9233,2.9281,2.9263,2.9352,2.9377,2.9427,2.9526,2.9571,2.9549,2.9721,2.967,2.9677,2.9683,2.9738,2.9754,2.9769,2.9577,2.9576,2.9575,0,0,2.9047,2.9083,2.916,2.9197,2.9252,2.927,2.9288,2.9341,2.9357,2.9446,2.9434,2.949,2.9594,2.9631,2.9664,2.9785,2.9773,2.9803,2.9863,2.9919,2.9932,2.9944,2.9989,3.0004,2.9813,2.9813,2.9813,0,2.9091,2.919,2.92,2.9273,2.931,2.9298,2.9376,2.9411,2.9482,2.9507,2.9482,2.9613,2.9646,2.9753,2.9783,2.9809,2.983,2.9798,2.993,2.9942,2.9953,2.9996,3.0012,2.9817,2.9816,2.9816,2.9816,0,2.9241,2.931,2.9365,2.9436,2.9479,2.9554,2.9575,2.9617,2.9617,2.9637,2.9727,2.9766,2.9832,2.9857,2.9858,2.9965,2.995,2.9927,2.9883,2.9973,3.0013,3.0029,2.9822,2.982,2.9819,2.9818,0,0,2.9376,2.9451,2.9472,2.9503,2.9563,2.9615,2.9688,2.9754,2.979,2.9839,2.99,2.9988,2.9967,3.0004,3.0008,3.0057,3.0152,3.0029,3.003,3.0051,3.0272,3.029,3.0309,3.0143,3.0146,3.0149,3.0268,0,2.9492,2.9623,2.9634,2.9752,2.9815,2.9804,2.9867,2.991,2.993,2.9985,3.0006,3.0069,3.0036,3.0058,3.0106,3.013,3.0196,3.0121,3.0201,3.0203,3.0191,3.033,3.0349,3.046,3.0284,3.0286,3.0288,0,2.9645,2.97,2.9824,2.9875,2.9901,2.9959,3.002,3.0073,3.012,3.0131,3.0171,3.0169,3.0243,3.0194,3.0295,3.0244,3.0277,3.0293,3.0298,3.0307,3.0253,3.0344,3.0496,3.0513,3.0313,3.0311,3.0309,0,2.9733,2.9837,2.9925,2.9952,3.0013,3.0054,3.008,3.0125,3.0163,3.0215,3.024,3.03,3.0333,3.0378,3.0391,3.0354,3.0492,3.0444,3.0503,3.0503,3.0535,3.0533,3.0695,3.0553,3.0552,3.0552,3.0552,0,2.9862,2.9939,2.9966,3.002,3.0105,3.0116,3.0199,3.0223,3.0263,3.0321,3.0313,3.0367,3.038,3.0436,3.0446,3.0529,3.0543,3.0554,3.0556,3.0556,3.0555,3.0579,3.0572,3.0556,3.0555,3.0555,3.0554,0,2.9976,2.9997,3.0092,3.0142,3.0156,3.0217,3.0258,3.031,3.0328,3.0401,3.0419,3.0447,3.0512,3.0529,3.0607,3.0613,3.0712,3.0706,3.0697,3.0697,3.0756,3.0751,3.0941,3.0967,3.0805,3.0807,3.0808,0,3.0058,3.0117,3.0173,3.0212,3.0241,3.0304,3.0343,3.0355,3.0396,3.0454,3.0498,3.0563,3.0616,3.0721,3.0747,3.0807,3.0803,3.0865,3.0812,3.081,3.0806,3.0803,3.0809,3.0876,3.0878,3.0879,3.088,0,3.0202,3.021,3.0268,3.033,3.0377,3.0426,3.0473,3.0504,3.0522,3.0568,3.0636,3.0677,3.0757,3.0822,3.0881,3.0907,3.0897,3.0897,3.0914,3.0916,3.0909,3.0915,3.0727,3.0893,3.0892,3.0891,3.089,3.089,3.0304,3.0357,3.0404,3.0469,3.0505,3.0549,3.06,3.0625,3.0682,3.0749,3.0751,3.0825,3.0869,3.0949,3.0978,3.1034,3.1015,3.104,3.1046,3.1053,3.1059,3.0898,3.1045,3.1044,3.1044,3.1044,3.1044,0,3.045,3.048,3.0539,3.0605,3.0656,3.0642,3.0692,3.0736,3.0801,3.0844,3.0896,3.0973,3.1035,3.1066,3.1127,3.1167,3.1164,3.1183,3.1181,3.1187,3.1071,3.1051,3.1184,3.1184,3.1184,3.1184,3.1184,3.1184,3.0532,3.062,3.0632,3.0737,3.0766,3.084,3.087,3.0909,3.0944,3.1031,3.1083,3.1103,3.1141,3.1204,3.126,3.1267,3.1291,3.1313,3.1318,3.1209,3.1195,3.1182,3.1163,3.1317,3.1317,3.1429,3.143,3.1431]}]]